Hourly Weather Murzyntsi

Today, 27 November, Friday

Time Temperature Precipitation Wind Pressure Humidity
00:00 0°C° 0 mm 4 mps 751 mmHg 90%
01:00 0°C° 0 mm 4 mps 751 mmHg 89%
02:00 -1°C° 0 mm 4 mps 750 mmHg 87%
03:00 -1°C° 0 mm 4 mps 750 mmHg 87%
04:00 -1°C° 0 mm 4 mps 750 mmHg 86%
05:00 -2°C° 0 mm 4 mps 750 mmHg 85%
06:00 -2°C° 0 mm 4 mps 749 mmHg 83%
07:00 -2°C° 0 mm 4 mps 749 mmHg 82%
08:00 -2°C° 0 mm 4 mps 749 mmHg 79%
09:00 -1°C° 0 mm 4 mps 749 mmHg 73%
10:00 +1°C° 0 mm 4 mps 749 mmHg 67%
11:00 +3°C° 0 mm 4 mps 749 mmHg 61%
12:00 +3°C° 0 mm 4 mps 749 mmHg 61%
13:00 +4°C° 0 mm 4 mps 748 mmHg 60%
14:00 +4°C° 0 mm 4 mps 748 mmHg 59%
15:00 +3°C° 0 mm 3 mps 748 mmHg 64%
16:00 +3°C° 0 mm 3 mps 748 mmHg 68%
17:00 +2°C° 0 mm 3 mps 748 mmHg 72%
18:00 +2°C° 0 mm 3 mps 748 mmHg 74%
19:00 +2°C° 0 mm 3 mps 748 mmHg 75%
20:00 +2°C° 0 mm 3 mps 748 mmHg 77%
21:00 +3°C° 0 mm 2 mps 748 mmHg 78%
22:00 +3°C° 0 mm 2 mps 748 mmHg 80%
23:00 +3°C° 0 mm 2 mps 748 mmHg 82%

Tomorrow, 28 November, Saturday

Time Temperature Precipitation Wind Pressure Humidity
00:00 +3°C° 0 mm 2 mps 748 mmHg 85%
01:00 +3°C° 0 mm 2 mps 748 mmHg 88%
02:00 +3°C° 0 mm 2 mps 748 mmHg 90%
03:00 +4°C° 0.1 mm 1 mps 748 mmHg 92%
04:00 +4°C° 0.1 mm 1 mps 748 mmHg 94%
05:00 +4°C° 0.1 mm 1 mps 748 mmHg 96%
06:00 +4°C° 0.1 mm 1 mps 748 mmHg 96%
07:00 +4°C° 0.1 mm 1 mps 748 mmHg 95%
08:00 +4°C° 0.1 mm 1 mps 748 mmHg 95%
09:00 +4°C° 0 mm 1 mps 748 mmHg 92%
10:00 +5°C° 0 mm 1 mps 748 mmHg 89%
11:00 +5°C° 0 mm 1 mps 748 mmHg 86%
12:00 +5°C° 0 mm 1 mps 748 mmHg 84%
13:00 +4°C° 0 mm 2 mps 748 mmHg 83%
14:00 +4°C° 0 mm 2 mps 748 mmHg 81%
15:00 +5°C° 0 mm 1 mps 748 mmHg 82%
16:00 +5°C° 0 mm 1 mps 748 mmHg 84%
17:00 +4°C° 0 mm 0 mps 748 mmHg 85%
18:00 +4°C° 0 mm 1 mps 748 mmHg 87%
19:00 +4°C° 0 mm 1 mps 748 mmHg 89%
20:00 +4°C° 0 mm 1 mps 748 mmHg 92%
21:00 +4°C° 0.2 mm 1 mps 748 mmHg 93%
22:00 +4°C° 0.2 mm 1 mps 748 mmHg 94%
23:00 +2°C° 0.2 mm 2 mps 748 mmHg 95%

Day after tomorrow, 29 November, Sunday

Time Temperature Precipitation Wind Pressure Humidity
00:00 +2°C° 0.6 mm 2 mps 748 mmHg 95%
01:00 +2°C° 0.6 mm 2 mps 747 mmHg 96%
02:00 +2°C° 0.6 mm 2 mps 747 mmHg 96%
03:00 +2°C° 0.4 mm 2 mps 747 mmHg 96%
04:00 +2°C° 0.4 mm 2 mps 747 mmHg 96%
05:00 +2°C° 0.4 mm 2 mps 746 mmHg 96%
06:00 +2°C° 0.2 mm 2 mps 746 mmHg 96%
07:00 +3°C° 0.2 mm 1 mps 747 mmHg 96%
08:00 +3°C° 0.2 mm 1 mps 747 mmHg 97%
09:00 +3°C° 0.3 mm 1 mps 747 mmHg 96%
10:00 +3°C° 0.3 mm 1 mps 747 mmHg 96%
11:00 +3°C° 0.3 mm 1 mps 747 mmHg 96%
12:00 +3°C° 0.1 mm 1 mps 747 mmHg 95%
13:00 +4°C° 0.1 mm 1 mps 748 mmHg 94%
14:00 +4°C° 0.1 mm 1 mps 748 mmHg 93%
15:00 +3°C° 0.1 mm 1 mps 748 mmHg 93%
16:00 +3°C° 0.1 mm 1 mps 748 mmHg 94%
17:00 +3°C° 0.1 mm 1 mps 748 mmHg 94%
18:00 +3°C° 0 mm 1 mps 749 mmHg 93%
19:00 +3°C° 0 mm 1 mps 749 mmHg 92%
20:00 +2°C° 0 mm 1 mps 749 mmHg 91%
21:00 +2°C° 0 mm 1 mps 749 mmHg 90%
22:00 +1°C° 0 mm 2 mps 750 mmHg 89%
23:00 -1°C° 0 mm 2 mps 750 mmHg 88%

30 November, Monday

Time Temperature Precipitation Wind Pressure Humidity
00:00 -1°C° 0 mm 2 mps 750 mmHg 88%
01:00 -2°C° 0 mm 2 mps 750 mmHg 87%
02:00 -2°C° 0 mm 2 mps 751 mmHg 87%
03:00 -2°C° 0 mm 2 mps 751 mmHg 85%
04:00 0°C° 0 mm 1 mps 751 mmHg 83%
05:00 0°C° 0 mm 1 mps 751 mmHg 82%
06:00 0°C° 0 mm 1 mps 751 mmHg 80%
07:00 -2°C° 0 mm 2 mps 752 mmHg 79%
08:00 -2°C° 0 mm 2 mps 752 mmHg 78%
09:00 -1°C° 0 mm 2 mps 752 mmHg 74%
10:00 -1°C° 0 mm 2 mps 752 mmHg 70%
11:00 +1°C° 0 mm 2 mps 752 mmHg 66%
12:00 0°C° 0 mm 3 mps 752 mmHg 65%
13:00 0°C° 0 mm 3 mps 753 mmHg 65%
14:00 +1°C° 0 mm 3 mps 753 mmHg 65%
15:00 0°C° 0 mm 3 mps 753 mmHg 69%
16:00 0°C° 0 mm 3 mps 753 mmHg 73%
17:00 -1°C° 0 mm 3 mps 753 mmHg 77%
18:00 -1°C° 0.3 mm 3 mps 753 mmHg 82%
19:00 -1°C° 0.3 mm 3 mps 754 mmHg 87%
20:00 -2°C° 0.3 mm 3 mps 754 mmHg 93%
21:00 -3°C° 0.6 mm 4 mps 754 mmHg 94%
22:00 -3°C° 0.6 mm 4 mps 754 mmHg 95%
23:00 -3°C° 0.6 mm 4 mps 754 mmHg 96%

1 December, Tuesday

Time Temperature Precipitation Wind Pressure Humidity
00:00 -4°C° 0.5 mm 5 mps 754 mmHg 96%
01:00 -4°C° 0.5 mm 5 mps 754 mmHg 96%
02:00 -4°C° 0.5 mm 5 mps 753 mmHg 96%
03:00 -4°C° 0.4 mm 5 mps 753 mmHg 96%
04:00 -4°C° 0.4 mm 5 mps 753 mmHg 96%
05:00 -4°C° 0.4 mm 5 mps 753 mmHg 96%
06:00 -4°C° 0.3 mm 5 mps 753 mmHg 96%
07:00 -2°C° 0.3 mm 5 mps 753 mmHg 96%
08:00 -2°C° 0.3 mm 4 mps 753 mmHg 96%
09:00 -2°C° 0.2 mm 4 mps 753 mmHg 97%
10:00 -2°C° 0.2 mm 4 mps 753 mmHg 97%
11:00 -2°C° 0.2 mm 4 mps 753 mmHg 97%
12:00 -2°C° 0.1 mm 4 mps 753 mmHg 97%
13:00 -1°C° 0.1 mm 3 mps 752 mmHg 98%
14:00 0°C° 0.1 mm 3 mps 752 mmHg 98%
15:00 0°C° 0.1 mm 3 mps 752 mmHg 98%
16:00 +1°C° 0.1 mm 2 mps 752 mmHg 97%
17:00 +1°C° 0.1 mm 2 mps 752 mmHg 97%
18:00 +1°C° 0.1 mm 2 mps 752 mmHg 98%
19:00 -1°C° 0.1 mm 2 mps 752 mmHg 98%
20:00 -1°C° 0.1 mm 2 mps 752 mmHg 99%
21:00 -1°C° 0 mm 2 mps 752 mmHg 99%
22:00 -1°C° 0 mm 2 mps 752 mmHg 98%
23:00 -1°C° 0 mm 2 mps 752 mmHg 98%

2 December, Wednesday

Time Temperature Precipitation Wind Pressure Humidity
00:00 +1°C° 0 mm 1 mps 752 mmHg 98%
01:00 +1°C° 0 mm 1 mps 752 mmHg 98%
02:00 +1°C° 0 mm 1 mps 752 mmHg 99%
03:00 +1°C° 0 mm 1 mps 752 mmHg 99%
04:00 +2°C° 0 mm 1 mps 752 mmHg 99%
05:00 +2°C° 0 mm 1 mps 751 mmHg 99%
06:00 +2°C° 0 mm 1 mps 752 mmHg 99%
07:00 +2°C° 0 mm 1 mps 752 mmHg 99%
08:00 +2°C° 0 mm 1 mps 752 mmHg 99%
09:00 +2°C° 0.1 mm 1 mps 752 mmHg 99%
10:00 +1°C° 0.1 mm 2 mps 752 mmHg 99%
11:00 +1°C° 0.1 mm 2 mps 752 mmHg 99%
12:00 +1°C° 0.2 mm 2 mps 752 mmHg 99%
13:00 +1°C° 0.2 mm 2 mps 752 mmHg 99%
14:00 +2°C° 0.2 mm 2 mps 752 mmHg 99%
15:00 +2°C° 0.2 mm 2 mps 752 mmHg 99%
16:00 +1°C° 0.2 mm 3 mps 753 mmHg 99%
17:00 +1°C° 0.2 mm 3 mps 753 mmHg 99%
18:00 +1°C° 0.2 mm 3 mps 753 mmHg 99%
19:00 0°C° 0.2 mm 4 mps 753 mmHg 99%
20:00 0°C° 0.2 mm 4 mps 753 mmHg 98%
21:00 -1°C° 0.1 mm 4 mps 753 mmHg 98%
22:00 -1°C° 0.1 mm 4 mps 754 mmHg 97%
23:00 -1°C° 0.1 mm 4 mps 754 mmHg 96%
Show more

We Need Your Consent

Meteoprog and our Service Providers may store and access personal data such as cookies, device identifiers or other similar technologies on your device and process such data to personalise content and ads, as well as provide social media features and to analyse the traffic.

  • Store and/or access information on your device

    Cookies, device identifiers or other information can be stored or accessed on your device for the purposes indicated above.

  • Personalised ads and content, ad and content measurement, audience insights, and products development

    Ads and content can be personalised based on a profile. More data can be added to better personalise ads and content. Ad and content performance can be measured. Insights about the audience who saw the ads and content can be derived. Such data can be used to develop or improve user’s experience, systems and software.

By clicking ‘I Agree’ you will allow the use of indicated cookies, device identifiers, web beacons or other similar technologies. Your settings can be changed in the browser on your device.

For certain purposes, legitimate interests may be relied on, rather than consent. You can read more about this in our Privacy and Cookie Policy.